Time,TemperatureF,DewpointF,PressureIn,WindDirection,WindDirectionDegrees,WindSpeedMPH,WindSpeedGustMPH,Humidity,HourlyPrecipIn,Conditions,Clouds,dailyrainin,SoftwareType,DateUTC
2013-06-17 00:01:00,57.6,54.0,29.76,SE,135,3.0,3.0,89,0.00,,,0.00,Rainwise IP-100,2013-06-17 04:01:00,
2013-06-17 00:06:00,57.9,55.0,29.76,SSE,157,8.0,8.0,89,0.00,,,0.00,Rainwise IP-100,2013-06-17 04:06:00,
2013-06-17 00:11:00,57.8,54.0,29.76,SE,135,7.0,7.0,89,0.00,,,0.00,Rainwise IP-100,2013-06-17 04:11:00,
2013-06-17 00:16:00,57.7,54.0,29.76,SSE,157,5.0,9.0,89,0.00,,,0.00,Rainwise IP-100,2013-06-17 04:16:00,
2013-06-17 00:21:00,58.1,55.0,29.76,SE,135,2.0,8.0,90,0.00,,,0.00,Rainwise IP-100,2013-06-17 04:21:00,
2013-06-17 00:26:00,58.5,56.0,29.76,SE,135,8.0,0.0,89,0.00,,,0.00,Rainwise IP-100,2013-06-17 04:26:00,
2013-06-17 00:31:00,58.7,55.0,29.76,SSE,157,3.0,0.0,88,0.00,,,0.00,Rainwise IP-100,2013-06-17 04:31:00,
2013-06-17 00:36:00,58.5,56.0,29.76,SSE,157,3.0,5.0,89,0.00,,,0.00,Rainwise IP-100,2013-06-17 04:36:00,
2013-06-17 00:41:00,58.6,56.0,29.76,SE,135,6.0,6.0,89,0.00,,,0.00,Rainwise IP-100,2013-06-17 04:41:00,
2013-06-17 00:46:00,58.7,56.0,29.76,SE,135,4.0,7.0,89,0.00,,,0.00,Rainwise IP-100,2013-06-17 04:46:00,
2013-06-17 00:51:00,58.7,56.0,29.76,SSE,157,4.0,5.0,90,0.00,,,0.00,Rainwise IP-100,2013-06-17 04:51:00,
2013-06-17 00:56:00,58.8,56.0,29.76,South,180,0.0,5.0,90,0.00,,,0.00,Rainwise IP-100,2013-06-17 04:56:00,
2013-06-17 01:01:00,58.8,56.0,29.75,SSE,157,2.0,5.0,90,0.00,,,0.00,Rainwise IP-100,2013-06-17 05:01:00,
2013-06-17 01:06:00,58.7,56.0,29.76,South,180,1.0,3.0,90,0.00,,,0.00,Rainwise IP-100,2013-06-17 05:06:00,
2013-06-17 01:11:00,58.8,56.0,29.75,SSE,157,2.0,4.0,91,0.00,,,0.00,Rainwise IP-100,2013-06-17 05:11:00,
2013-06-17 01:16:00,58.8,56.0,29.76,SE,135,3.0,4.0,91,0.00,,,0.00,Rainwise IP-100,2013-06-17 05:16:00,
2013-06-17 01:21:00,58.8,56.0,29.75,SE,135,2.0,4.0,91,0.00,,,0.00,Rainwise IP-100,2013-06-17 05:21:00,
2013-06-17 01:26:00,58.7,56.0,29.76,South,180,5.0,5.0,91,0.00,,,0.00,Rainwise IP-100,2013-06-17 05:26:00,
2013-06-17 01:31:00,58.6,56.0,29.76,SSW,202,2.0,6.0,92,0.00,,,0.00,Rainwise IP-100,2013-06-17 05:31:00,
2013-06-17 01:36:00,58.4,56.0,29.75,SSW,202,1.0,4.0,92,0.00,,,0.00,Rainwise IP-100,2013-06-17 05:36:00,
2013-06-17 01:41:00,58.4,56.0,29.75,SE,135,2.0,3.0,92,0.00,,,0.00,Rainwise IP-100,2013-06-17 05:41:00,
2013-06-17 01:46:00,58.4,56.0,29.75,SE,135,3.0,3.0,92,0.00,,,0.00,Rainwise IP-100,2013-06-17 05:46:00,
2013-06-17 01:51:00,58.1,56.0,29.75,SE,135,5.0,6.0,92,0.00,,,0.00,Rainwise IP-100,2013-06-17 05:51:00,
2013-06-17 01:56:00,57.3,54.0,29.75,SE,135,5.0,8.0,92,0.00,,,0.00,Rainwise IP-100,2013-06-17 05:56:00,
2013-06-17 02:01:00,56.6,54.0,29.75,SSE,157,4.0,7.0,92,0.00,,,0.00,Rainwise IP-100,2013-06-17 06:01:00,
2013-06-17 02:06:00,56.4,54.0,29.75,SSE,157,4.0,8.0,93,0.00,,,0.00,Rainwise IP-100,2013-06-17 06:06:00,
2013-06-17 02:11:00,56.3,54.0,29.75,SE,135,6.0,7.0,93,0.00,,,0.00,Rainwise IP-100,2013-06-17 06:11:00,
2013-06-17 02:16:00,56.3,54.0,29.75,SE,135,4.0,5.0,94,0.00,,,0.00,Rainwise IP-100,2013-06-17 06:16:00,
2013-06-17 02:21:00,56.3,54.0,29.75,South,180,1.0,4.0,94,0.00,,,0.00,Rainwise IP-100,2013-06-17 06:21:00,
2013-06-17 02:26:00,56.4,54.0,29.75,SSE,157,2.0,3.0,94,0.00,,,0.00,Rainwise IP-100,2013-06-17 06:26:00,
2013-06-17 02:31:00,56.4,54.0,29.74,SSE,157,1.0,3.0,94,0.00,,,0.00,Rainwise IP-100,2013-06-17 06:31:00,
2013-06-17 02:36:00,56.5,54.0,29.75,SE,135,3.0,4.0,94,0.00,,,0.00,Rainwise IP-100,2013-06-17 06:36:00,
2013-06-17 02:41:00,56.3,54.0,29.74,SE,135,5.0,6.0,94,0.00,,,0.00,Rainwise IP-100,2013-06-17 06:41:00,
2013-06-17 02:46:00,55.9,54.0,29.74,SSE,157,5.0,6.0,94,0.00,,,0.00,Rainwise IP-100,2013-06-17 06:46:00,
2013-06-17 02:51:00,55.8,54.0,29.74,SSE,157,4.0,6.0,95,0.00,,,0.00,Rainwise IP-100,2013-06-17 06:51:00,
2013-06-17 02:56:00,55.8,54.0,29.74,South,180,2.0,4.0,95,0.00,,,0.00,Rainwise IP-100,2013-06-17 06:56:00,
2013-06-17 03:01:00,55.9,54.0,29.74,SSE,157,2.0,3.0,95,0.00,,,0.00,Rainwise IP-100,2013-06-17 07:01:00,
2013-06-17 03:06:00,55.9,54.0,29.75,ESE,112,2.0,3.0,96,0.00,,,0.00,Rainwise IP-100,2013-06-17 07:06:00,
2013-06-17 03:11:00,55.7,54.0,29.74,SE,135,1.0,3.0,96,0.00,,,0.00,Rainwise IP-100,2013-06-17 07:11:00,
2013-06-17 03:16:00,55.7,54.0,29.74,SE,135,0.0,1.0,96,0.00,,,0.00,Rainwise IP-100,2013-06-17 07:16:00,
2013-06-17 03:21:00,55.7,54.0,29.75,SE,135,0.0,0.0,96,0.00,,,0.00,Rainwise IP-100,2013-06-17 07:21:00,
2013-06-17 03:26:00,55.9,54.0,29.75,SE,135,0.0,0.0,96,0.00,,,0.00,Rainwise IP-100,2013-06-17 07:26:00,
2013-06-17 03:31:00,55.9,54.0,29.75,SE,135,0.0,0.0,96,0.00,,,0.00,Rainwise IP-100,2013-06-17 07:31:00,
2013-06-17 03:36:00,55.8,54.0,29.75,SE,135,0.0,0.0,96,0.00,,,0.00,Rainwise IP-100,2013-06-17 07:36:00,
2013-06-17 03:41:00,56.0,54.0,29.75,NW,315,0.0,2.0,96,0.00,,,0.00,Rainwise IP-100,2013-06-17 07:41:00,
2013-06-17 03:46:00,56.3,54.0,29.74,NW,315,1.0,5.0,96,0.00,,,0.00,Rainwise IP-100,2013-06-17 07:46:00,
2013-06-17 03:51:00,56.8,56.0,29.75,WNW,292,0.0,6.0,97,0.00,,,0.00,Rainwise IP-100,2013-06-17 07:51:00,
2013-06-17 03:56:00,57.3,56.0,29.75,WNW,292,0.0,2.0,97,0.00,,,0.00,Rainwise IP-100,2013-06-17 07:56:00,
2013-06-17 04:01:00,57.4,56.0,29.75,SE,135,3.0,3.0,96,0.00,,,0.00,Rainwise IP-100,2013-06-17 08:01:00,
2013-06-17 04:06:00,56.7,55.0,29.74,SE,135,2.0,4.0,96,0.00,,,0.00,Rainwise IP-100,2013-06-17 08:06:00,
2013-06-17 04:11:00,55.9,54.0,29.74,SE,135,0.0,2.0,96,0.00,,,0.00,Rainwise IP-100,2013-06-17 08:11:00,
2013-06-17 04:16:00,55.8,54.0,29.75,West,270,0.0,2.0,96,0.00,,,0.00,Rainwise IP-100,2013-06-17 08:16:00,
2013-06-17 04:21:00,55.9,55.0,29.74,North,0,0.0,2.0,97,0.00,,,0.00,Rainwise IP-100,2013-06-17 08:21:00,
2013-06-17 04:26:00,55.9,55.0,29.74,North,0,0.0,0.0,97,0.00,,,0.00,Rainwise IP-100,2013-06-17 08:26:00,
2013-06-17 04:31:00,55.9,55.0,29.75,NNW,337,0.0,1.0,97,0.00,,,0.00,Rainwise IP-100,2013-06-17 08:31:00,
2013-06-17 04:36:00,55.8,55.0,29.74,SE,135,4.0,5.0,97,0.00,,,0.00,Rainwise IP-100,2013-06-17 08:36:00,
2013-06-17 04:41:00,55.5,55.0,29.75,SE,135,4.0,4.0,97,0.00,,,0.00,Rainwise IP-100,2013-06-17 08:41:00,
2013-06-17 04:46:00,55.4,54.0,29.75,SE,135,3.0,4.0,97,0.00,,,0.00,Rainwise IP-100,2013-06-17 08:46:00,
2013-06-17 04:51:00,55.3,54.0,29.75,SSE,157,3.0,4.0,97,0.00,,,0.00,Rainwise IP-100,2013-06-17 08:51:00,
2013-06-17 04:56:00,55.1,54.0,29.74,South,180,2.0,4.0,98,0.00,,,0.00,Rainwise IP-100,2013-06-17 08:56:00,
2013-06-17 05:01:00,54.9,54.0,29.75,SSE,157,3.0,3.0,98,0.00,,,0.00,Rainwise IP-100,2013-06-17 09:01:00,
2013-06-17 05:06:00,54.6,54.0,29.75,SSE,157,2.0,4.0,98,0.00,,,0.00,Rainwise IP-100,2013-06-17 09:06:00,
2013-06-17 05:11:00,54.5,54.0,29.76,South,180,3.0,3.0,98,0.00,,,0.00,Rainwise IP-100,2013-06-17 09:11:00,
2013-06-17 05:16:00,54.5,54.0,29.76,South,180,0.0,2.0,98,0.00,,,0.00,Rainwise IP-100,2013-06-17 09:16:00,
2013-06-17 05:21:00,54.6,54.0,29.76,SW,225,0.0,2.0,99,0.00,,,0.00,Rainwise IP-100,2013-06-17 09:21:00,
2013-06-17 05:26:00,54.8,54.0,29.77,SW,225,0.0,1.0,99,0.00,,,0.00,Rainwise IP-100,2013-06-17 09:26:00,
2013-06-17 05:31:00,54.9,55.0,29.77,East,90,1.0,1.0,99,0.00,,,0.00,Rainwise IP-100,2013-06-17 09:31:00,
2013-06-17 05:36:00,54.8,54.0,29.78,East,90,0.0,1.0,99,0.00,,,0.00,Rainwise IP-100,2013-06-17 09:36:00,
2013-06-17 05:41:00,54.9,55.0,29.77,East,90,2.0,2.0,99,0.00,,,0.00,Rainwise IP-100,2013-06-17 09:41:00,
2013-06-17 05:46:00,55.0,55.0,29.78,East,90,0.0,3.0,99,0.00,,,0.00,Rainwise IP-100,2013-06-17 09:46:00,
2013-06-17 05:51:00,55.5,56.0,29.78,WNW,292,7.0,0.0,99,0.00,,,0.00,Rainwise IP-100,2013-06-17 09:51:00,
2013-06-17 05:56:00,56.3,56.0,29.79,West,270,7.0,8.0,99,0.00,,,0.00,Rainwise IP-100,2013-06-17 09:56:00,
2013-06-17 06:01:00,57.2,57.0,29.79,NW,315,2.0,7.0,99,0.00,,,0.00,Rainwise IP-100,2013-06-17 10:01:00,
2013-06-17 06:06:00,57.8,57.0,29.78,NW,315,2.0,4.0,99,0.00,,,0.00,Rainwise IP-100,2013-06-17 10:06:00,
2013-06-17 06:11:00,58.8,59.0,29.79,NW,315,5.0,6.0,99,0.00,,,0.00,Rainwise IP-100,2013-06-17 10:11:00,
2013-06-17 06:16:00,59.9,59.0,29.79,NNW,337,6.0,7.0,99,0.00,,,0.00,Rainwise IP-100,2013-06-17 10:16:00,
2013-06-17 06:21:00,60.4,60.0,29.80,NNW,337,3.0,7.0,98,0.00,,,0.00,Rainwise IP-100,2013-06-17 10:21:00,
2013-06-17 06:26:00,61.1,60.0,29.79,NNW,337,0.0,3.0,98,0.00,,,0.00,Rainwise IP-100,2013-06-17 10:26:00,
2013-06-17 06:31:00,62.1,61.0,29.80,WNW,292,4.0,5.0,98,0.00,,,0.00,Rainwise IP-100,2013-06-17 10:31:00,
2013-06-17 06:36:00,62.5,61.0,29.80,WNW,292,6.0,8.0,97,0.00,,,0.00,Rainwise IP-100,2013-06-17 10:36:00,
2013-06-17 06:41:00,62.4,61.0,29.79,WNW,292,5.0,0.0,96,0.00,,,0.00,Rainwise IP-100,2013-06-17 10:41:00,
2013-06-17 06:46:00,62.7,61.0,29.78,West,270,8.0,8.0,94,0.00,,,0.00,Rainwise IP-100,2013-06-17 10:46:00,
2013-06-17 06:51:00,63.2,60.0,29.79,NW,315,7.0,7.0,91,0.00,,,0.00,Rainwise IP-100,2013-06-17 10:51:00,
2013-06-17 06:56:00,63.6,60.0,29.79,WNW,292,8.0,8.0,89,0.00,,,0.00,Rainwise IP-100,2013-06-17 10:56:00,
2013-06-17 07:01:00,63.9,60.0,29.80,WNW,292,0.0,4.0,88,0.00,,,0.00,Rainwise IP-100,2013-06-17 11:01:00,
2013-06-17 07:06:00,64.4,60.0,29.79,WNW,292,0.0,9.0,87,0.06,,,0.01,Rainwise IP-100,2013-06-17 11:06:00,
2013-06-17 07:11:00,64.7,60.0,29.80,WNW,292,9.0,9.0,85,0.06,,,0.01,Rainwise IP-100,2013-06-17 11:11:00,
2013-06-17 07:16:00,64.9,60.0,29.80,NW,315,8.0,8.0,85,0.00,,,0.01,Rainwise IP-100,2013-06-17 11:16:00,
2013-06-17 07:21:00,65.0,60.0,29.80,NW,315,0.0,6.0,84,0.00,,,0.01,Rainwise IP-100,2013-06-17 11:21:00,
2013-06-17 07:26:00,65.2,60.0,29.80,WNW,292,4.0,5.0,84,0.00,,,0.01,Rainwise IP-100,2013-06-17 11:26:00,
2013-06-17 07:31:00,65.6,60.0,29.80,NW,315,0.0,4.0,83,0.00,,,0.01,Rainwise IP-100,2013-06-17 11:31:00,
2013-06-17 07:36:00,66.0,60.0,29.80,WNW,292,9.0,9.0,82,0.00,,,0.01,Rainwise IP-100,2013-06-17 11:36:00,
2013-06-17 07:41:00,66.4,60.0,29.80,NW,315,0.0,1.0,81,0.00,,,0.01,Rainwise IP-100,2013-06-17 11:41:00,
2013-06-17 07:46:00,66.8,60.0,29.80,NW,315,0.0,3.0,80,0.00,,,0.01,Rainwise IP-100,2013-06-17 11:46:00,
2013-06-17 07:51:00,67.0,60.0,29.80,NNW,337,5.0,5.0,79,0.00,,,0.01,Rainwise IP-100,2013-06-17 11:51:00,
2013-06-17 07:56:00,67.3,60.0,29.81,WNW,292,8.0,8.0,79,0.00,,,0.01,Rainwise IP-100,2013-06-17 11:56:00,
2013-06-17 08:01:00,67.7,60.0,29.81,NW,315,8.0,8.0,78,0.00,,,0.01,Rainwise IP-100,2013-06-17 12:01:00,
2013-06-17 08:06:00,68.0,60.0,29.81,WNW,292,8.0,0.0,77,0.00,,,0.01,Rainwise IP-100,2013-06-17 12:06:00,
2013-06-17 08:11:00,68.3,60.0,29.82,NW,315,5.0,5.0,76,0.00,,,0.01,Rainwise IP-100,2013-06-17 12:11:00,
2013-06-17 08:16:00,68.5,60.0,29.81,NW,315,0.0,2.0,75,0.00,,,0.01,Rainwise IP-100,2013-06-17 12:16:00,
2013-06-17 08:21:00,68.6,60.0,29.81,WNW,292,8.0,8.0,74,0.00,,,0.01,Rainwise IP-100,2013-06-17 12:21:00,
2013-06-17 08:26:00,68.7,60.0,29.82,NNW,337,8.0,8.0,74,0.00,,,0.01,Rainwise IP-100,2013-06-17 12:26:00,
2013-06-17 08:31:00,68.8,60.0,29.81,NNW,337,8.0,9.0,74,0.00,,,0.01,Rainwise IP-100,2013-06-17 12:31:00,
2013-06-17 08:36:00,69.2,60.0,29.82,NW,315,0.0,1.0,74,0.00,,,0.01,Rainwise IP-100,2013-06-17 12:36:00,
2013-06-17 08:41:00,69.4,60.0,29.81,NNW,337,0.0,3.0,73,0.00,,,0.01,Rainwise IP-100,2013-06-17 12:41:00,
2013-06-17 08:46:00,69.2,60.0,29.81,NW,315,0.0,2.0,72,0.00,,,0.01,Rainwise IP-100,2013-06-17 12:46:00,
2013-06-17 08:51:00,69.3,60.0,29.81,NNW,337,9.0,9.0,72,0.00,,,0.01,Rainwise IP-100,2013-06-17 12:51:00,
2013-06-17 08:56:00,69.4,60.0,29.82,NNW,337,7.0,7.0,72,0.00,,,0.01,Rainwise IP-100,2013-06-17 12:56:00,
2013-06-17 09:01:00,69.9,60.0,29.80,NNW,337,8.0,8.0,72,0.00,,,0.01,Rainwise IP-100,2013-06-17 13:01:00,
2013-06-17 09:06:00,70.4,60.0,29.81,North,0,1.0,9.0,71,0.00,,,0.01,Rainwise IP-100,2013-06-17 13:06:00,
2013-06-17 09:11:00,70.8,60.0,29.81,NW,315,6.0,7.0,70,0.00,,,0.01,Rainwise IP-100,2013-06-17 13:11:00,
2013-06-17 09:16:00,71.5,61.0,29.81,WNW,292,4.0,4.0,70,0.00,,,0.01,Rainwise IP-100,2013-06-17 13:16:00,
2013-06-17 09:21:00,71.8,60.0,29.81,North,0,3.0,3.0,68,0.00,,,0.01,Rainwise IP-100,2013-06-17 13:21:00,
2013-06-17 09:26:00,71.7,59.0,29.80,NNW,337,7.0,7.0,66,0.00,,,0.01,Rainwise IP-100,2013-06-17 13:26:00,
2013-06-17 09:31:00,71.6,59.0,29.80,NNE,22,6.0,6.0,65,0.00,,,0.01,Rainwise IP-100,2013-06-17 13:31:00,
2013-06-17 09:36:00,71.6,59.0,29.81,NNW,337,3.0,4.0,65,0.00,,,0.01,Rainwise IP-100,2013-06-17 13:36:00,
2013-06-17 09:41:00,71.9,59.0,29.80,NW,315,9.0,9.0,64,0.00,,,0.01,Rainwise IP-100,2013-06-17 13:41:00,
2013-06-17 09:46:00,72.2,59.0,29.81,North,0,4.0,0.0,64,0.00,,,0.01,Rainwise IP-100,2013-06-17 13:46:00,
2013-06-17 09:51:00,72.2,59.0,29.81,NNW,337,8.0,8.0,64,0.00,,,0.01,Rainwise IP-100,2013-06-17 13:51:00,
2013-06-17 09:56:00,72.4,59.0,29.80,NNW,337,6.0,6.0,63,0.00,,,0.01,Rainwise IP-100,2013-06-17 13:56:00,
2013-06-17 10:01:00,73.2,59.0,29.80,NNW,337,0.0,0.0,62,0.00,,,0.01,Rainwise IP-100,2013-06-17 14:01:00,
2013-06-17 10:06:00,73.4,59.0,29.80,NNW,337,4.0,4.0,62,0.00,,,0.01,Rainwise IP-100,2013-06-17 14:06:00,
2013-06-17 10:11:00,73.7,59.0,29.80,NW,315,5.0,0.0,61,0.00,,,0.01,Rainwise IP-100,2013-06-17 14:11:00,
2013-06-17 10:16:00,73.8,59.0,29.81,WNW,292,7.0,7.0,59,0.00,,,0.01,Rainwise IP-100,2013-06-17 14:16:00,
2013-06-17 10:21:00,73.8,59.0,29.80,NW,315,4.0,4.0,59,0.00,,,0.01,Rainwise IP-100,2013-06-17 14:21:00,
2013-06-17 10:26:00,74.4,59.0,29.80,NW,315,7.0,0.0,58,0.00,,,0.01,Rainwise IP-100,2013-06-17 14:26:00,
2013-06-17 10:31:00,74.7,59.0,29.80,NNW,337,0.0,2.0,58,0.00,,,0.01,Rainwise IP-100,2013-06-17 14:31:00,
2013-06-17 10:36:00,74.7,59.0,29.80,North,0,7.0,7.0,57,0.00,,,0.01,Rainwise IP-100,2013-06-17 14:36:00,
2013-06-17 10:41:00,74.8,59.0,29.80,NW,315,0.0,4.0,57,0.00,,,0.01,Rainwise IP-100,2013-06-17 14:41:00,
2013-06-17 10:46:00,74.5,58.0,29.80,NNW,337,7.0,7.0,56,0.00,,,0.01,Rainwise IP-100,2013-06-17 14:46:00,
2013-06-17 10:51:00,74.4,57.0,29.80,NNW,337,2.0,4.0,56,0.00,,,0.01,Rainwise IP-100,2013-06-17 14:51:00,
2013-06-17 10:56:00,74.9,57.0,29.79,NNW,337,0.0,6.0,55,0.00,,,0.01,Rainwise IP-100,2013-06-17 14:56:00,
2013-06-17 11:01:00,75.1,57.0,29.80,NNW,337,4.0,0.0,55,0.00,,,0.01,Rainwise IP-100,2013-06-17 15:01:00,
2013-06-17 11:06:00,75.0,57.0,29.80,WSW,247,0.0,5.0,55,0.00,,,0.01,Rainwise IP-100,2013-06-17 15:06:00,
2013-06-17 11:11:00,75.1,57.0,29.80,NW,315,0.0,1.0,55,0.00,,,0.01,Rainwise IP-100,2013-06-17 15:11:00,
2013-06-17 11:16:00,75.1,57.0,29.80,NNW,337,9.0,0.0,55,0.00,,,0.01,Rainwise IP-100,2013-06-17 15:16:00,
2013-06-17 11:21:00,75.5,58.0,29.80,North,0,3.0,4.0,55,0.00,,,0.01,Rainwise IP-100,2013-06-17 15:21:00,
2013-06-17 11:26:00,75.9,58.0,29.80,WNW,292,8.0,8.0,54,0.00,,,0.01,Rainwise IP-100,2013-06-17 15:26:00,
2013-06-17 11:31:00,75.9,58.0,29.80,NW,315,0.0,5.0,54,0.00,,,0.01,Rainwise IP-100,2013-06-17 15:31:00,
2013-06-17 11:36:00,75.6,57.0,29.79,West,270,0.0,6.0,54,0.00,,,0.01,Rainwise IP-100,2013-06-17 15:36:00,
2013-06-17 11:41:00,75.4,57.0,29.80,WNW,292,0.0,4.0,54,0.00,,,0.01,Rainwise IP-100,2013-06-17 15:41:00,
2013-06-17 11:46:00,75.6,57.0,29.80,NW,315,9.0,9.0,54,0.00,,,0.01,Rainwise IP-100,2013-06-17 15:46:00,
2013-06-17 11:51:00,76.0,58.0,29.80,WNW,292,8.0,8.0,54,0.00,,,0.01,Rainwise IP-100,2013-06-17 15:51:00,
2013-06-17 11:56:00,76.1,57.0,29.79,NW,315,8.0,8.0,53,0.00,,,0.01,Rainwise IP-100,2013-06-17 15:56:00,
2013-06-17 12:01:00,76.3,57.0,29.79,WNW,292,5.0,5.0,53,0.00,,,0.01,Rainwise IP-100,2013-06-17 16:01:00,
2013-06-17 12:06:00,76.9,59.0,29.79,NW,315,0.0,5.0,53,0.00,,,0.01,Rainwise IP-100,2013-06-17 16:06:00,
2013-06-17 12:11:00,77.4,58.0,29.79,NNW,337,8.0,8.0,52,0.00,,,0.01,Rainwise IP-100,2013-06-17 16:11:00,
2013-06-17 12:16:00,78.0,59.0,29.79,West,270,0.0,6.0,52,0.00,,,0.01,Rainwise IP-100,2013-06-17 16:16:00,
2013-06-17 12:21:00,77.7,59.0,29.79,ESE,112,0.0,3.0,52,0.00,,,0.01,Rainwise IP-100,2013-06-17 16:21:00,
2013-06-17 12:26:00,77.7,59.0,29.79,NW,315,9.0,9.0,52,0.00,,,0.01,Rainwise IP-100,2013-06-17 16:26:00,
2013-06-17 12:31:00,78.2,58.0,29.79,NW,315,9.0,9.0,50,0.00,,,0.01,Rainwise IP-100,2013-06-17 16:31:00,
2013-06-17 12:36:00,78.7,58.0,29.79,NW,315,8.0,8.0,49,0.00,,,0.01,Rainwise IP-100,2013-06-17 16:36:00,
2013-06-17 12:41:00,79.3,57.0,29.79,WNW,292,0.0,5.0,48,0.00,,,0.01,Rainwise IP-100,2013-06-17 16:41:00,
2013-06-17 12:46:00,78.2,57.0,29.79,ESE,112,3.0,7.0,48,0.00,,,0.01,Rainwise IP-100,2013-06-17 16:46:00,
2013-06-17 12:51:00,76.1,57.0,29.80,ENE,67,5.0,7.0,52,0.00,,,0.01,Rainwise IP-100,2013-06-17 16:51:00,
2013-06-17 12:56:00,76.3,58.0,29.79,WNW,292,0.0,1.0,54,0.00,,,0.01,Rainwise IP-100,2013-06-17 16:56:00,
2013-06-17 13:01:00,77.6,58.0,29.79,WNW,292,8.0,8.0,51,0.00,,,0.01,Rainwise IP-100,2013-06-17 17:01:00,
2013-06-17 13:06:00,78.3,58.0,29.79,West,270,6.0,6.0,50,0.00,,,0.01,Rainwise IP-100,2013-06-17 17:06:00,
2013-06-17 13:11:00,78.8,59.0,29.78,WNW,292,0.0,2.0,50,0.00,,,0.01,Rainwise IP-100,2013-06-17 17:11:00,
2013-06-17 13:16:00,78.6,59.0,29.79,SW,225,3.0,3.0,50,0.00,,,0.01,Rainwise IP-100,2013-06-17 17:16:00,
2013-06-17 13:21:00,78.4,58.0,29.79,WSW,247,0.0,3.0,50,0.00,,,0.01,Rainwise IP-100,2013-06-17 17:21:00,
2013-06-17 13:26:00,78.2,59.0,29.78,West,270,6.0,6.0,51,0.00,,,0.01,Rainwise IP-100,2013-06-17 17:26:00,
2013-06-17 13:31:00,78.1,58.0,29.78,SSW,202,4.0,4.0,51,0.00,,,0.01,Rainwise IP-100,2013-06-17 17:31:00,
2013-06-17 13:36:00,77.7,59.0,29.78,SSW,202,6.0,6.0,52,0.00,,,0.01,Rainwise IP-100,2013-06-17 17:36:00,
2013-06-17 13:41:00,76.9,59.0,29.79,SW,225,0.0,4.0,53,0.00,,,0.01,Rainwise IP-100,2013-06-17 17:41:00,
2013-06-17 13:46:00,76.6,59.0,29.78,SSW,202,5.0,5.0,54,0.00,,,0.01,Rainwise IP-100,2013-06-17 17:46:00,
2013-06-17 13:51:00,76.3,59.0,29.78,SSW,202,6.0,6.0,55,0.00,,,0.01,Rainwise IP-100,2013-06-17 17:51:00,
2013-06-17 13:56:00,75.9,59.0,29.78,SSW,202,0.0,3.0,55,0.00,,,0.01,Rainwise IP-100,2013-06-17 17:56:00,
2013-06-17 14:01:00,75.8,57.0,29.79,SW,225,3.0,0.0,54,0.00,,,0.01,Rainwise IP-100,2013-06-17 18:01:00,
2013-06-17 14:06:00,75.6,57.0,29.79,SSW,202,0.0,6.0,54,0.00,,,0.01,Rainwise IP-100,2013-06-17 18:06:00,
2013-06-17 14:11:00,74.8,57.0,29.79,SSW,202,9.0,9.0,55,0.00,,,0.01,Rainwise IP-100,2013-06-17 18:11:00,
2013-06-17 14:16:00,74.3,57.0,29.79,SW,225,8.0,8.0,56,0.00,,,0.01,Rainwise IP-100,2013-06-17 18:16:00,
2013-06-17 14:21:00,74.4,57.0,29.79,SSW,202,0.0,8.0,56,0.00,,,0.01,Rainwise IP-100,2013-06-17 18:21:00,
2013-06-17 14:26:00,74.5,57.0,29.80,SW,225,0.0,7.0,55,0.00,,,0.01,Rainwise IP-100,2013-06-17 18:26:00,
2013-06-17 14:31:00,74.5,57.0,29.80,SSW,202,8.0,8.0,55,0.00,,,0.01,Rainwise IP-100,2013-06-17 18:31:00,
2013-06-17 14:36:00,74.8,57.0,29.79,South,180,0.0,3.0,55,0.00,,,0.01,Rainwise IP-100,2013-06-17 18:36:00,
2013-06-17 14:41:00,75.3,57.0,29.79,South,180,5.0,5.0,54,0.00,,,0.01,Rainwise IP-100,2013-06-17 18:41:00,
2013-06-17 14:46:00,75.3,57.0,29.79,SW,225,4.0,4.0,54,0.00,,,0.01,Rainwise IP-100,2013-06-17 18:46:00,
2013-06-17 14:51:00,75.4,57.0,29.79,SE,135,7.0,7.0,54,0.00,,,0.01,Rainwise IP-100,2013-06-17 18:51:00,
2013-06-17 14:56:00,76.0,57.0,29.79,SW,225,4.0,4.0,53,0.00,,,0.01,Rainwise IP-100,2013-06-17 18:56:00,
2013-06-17 15:01:00,76.5,58.0,29.79,SSW,202,5.0,5.0,53,0.00,,,0.01,Rainwise IP-100,2013-06-17 19:01:00,
2013-06-17 15:06:00,76.4,58.0,29.79,SSW,202,4.0,4.0,53,0.00,,,0.01,Rainwise IP-100,2013-06-17 19:06:00,
2013-06-17 15:11:00,75.8,57.0,29.78,SW,225,6.0,6.0,54,0.00,,,0.01,Rainwise IP-100,2013-06-17 19:11:00,
2013-06-17 15:16:00,75.3,57.0,29.78,South,180,8.0,8.0,55,0.00,,,0.01,Rainwise IP-100,2013-06-17 19:16:00,
2013-06-17 15:21:00,75.1,58.0,29.78,South,180,4.0,6.0,56,0.00,,,0.01,Rainwise IP-100,2013-06-17 19:21:00,
2013-06-17 15:26:00,75.1,59.0,29.79,SSW,202,6.0,6.0,57,0.00,,,0.01,Rainwise IP-100,2013-06-17 19:26:00,
2013-06-17 15:31:00,75.4,59.0,29.79,WSW,247,6.0,6.0,57,0.00,,,0.01,Rainwise IP-100,2013-06-17 19:31:00,
2013-06-17 15:36:00,75.6,59.0,29.79,WSW,247,3.0,3.0,56,0.00,,,0.01,Rainwise IP-100,2013-06-17 19:36:00,
2013-06-17 15:41:00,76.1,59.0,29.79,SSW,202,2.0,3.0,55,0.00,,,0.01,Rainwise IP-100,2013-06-17 19:41:00,
2013-06-17 15:46:00,77.0,59.0,29.80,WSW,247,4.0,4.0,54,0.00,,,0.01,Rainwise IP-100,2013-06-17 19:46:00,
2013-06-17 15:51:00,76.7,59.0,29.80,NW,315,4.0,5.0,54,0.00,,,0.01,Rainwise IP-100,2013-06-17 19:51:00,
2013-06-17 15:56:00,75.6,58.0,29.80,WSW,247,4.0,5.0,55,0.00,,,0.01,Rainwise IP-100,2013-06-17 19:56:00,
2013-06-17 16:01:00,74.8,58.0,29.80,West,270,9.0,9.0,56,0.00,,,0.01,Rainwise IP-100,2013-06-17 20:01:00,
2013-06-17 16:06:00,74.0,57.0,29.80,WNW,292,8.0,8.0,57,0.00,,,0.01,Rainwise IP-100,2013-06-17 20:06:00,
2013-06-17 16:11:00,73.1,58.0,29.81,WNW,292,0.0,8.0,60,0.00,,,0.01,Rainwise IP-100,2013-06-17 20:11:00,
2013-06-17 16:16:00,71.6,59.0,29.83,West,270,0.0,4.0,64,0.12,,,0.03,Rainwise IP-100,2013-06-17 20:16:00,
2013-06-17 16:21:00,68.9,60.0,29.83,WNW,292,0.0,1.0,73,0.48,,,0.09,Rainwise IP-100,2013-06-17 20:21:00,
2013-06-17 16:26:00,66.3,60.0,29.85,WNW,292,0.0,4.0,80,0.78,,,0.16,Rainwise IP-100,2013-06-17 20:26:00,
2013-06-17 16:31:00,64.4,59.0,29.85,West,270,9.0,9.0,84,1.08,,,0.27,Rainwise IP-100,2013-06-17 20:31:00,
2013-06-17 16:36:00,63.6,60.0,29.86,NNW,337,3.0,5.0,88,0.96,,,0.32,Rainwise IP-100,2013-06-17 20:36:00,
2013-06-17 16:41:00,63.4,60.0,29.85,WSW,247,6.0,9.0,90,0.48,,,0.35,Rainwise IP-100,2013-06-17 20:41:00,
2013-06-17 16:46:00,63.2,60.0,29.84,South,180,5.0,7.0,91,0.18,,,0.35,Rainwise IP-100,2013-06-17 20:46:00,
2013-06-17 16:51:00,62.9,60.0,29.84,SSW,202,4.0,9.0,92,0.06,,,0.36,Rainwise IP-100,2013-06-17 20:51:00,
2013-06-17 16:56:00,62.8,60.0,29.84,SW,225,4.0,7.0,91,0.06,,,0.36,Rainwise IP-100,2013-06-17 20:56:00,
2013-06-17 17:01:00,62.9,60.0,29.84,SW,225,2.0,7.0,91,0.00,,,0.36,Rainwise IP-100,2013-06-17 21:01:00,
2013-06-17 17:06:00,63.2,60.0,29.84,West,270,3.0,6.0,90,0.00,,,0.36,Rainwise IP-100,2013-06-17 21:06:00,
2013-06-17 17:11:00,63.6,60.0,29.84,West,270,3.0,7.0,89,0.00,,,0.36,Rainwise IP-100,2013-06-17 21:11:00,
2013-06-17 17:16:00,63.9,60.0,29.84,WSW,247,0.0,8.0,87,0.06,,,0.37,Rainwise IP-100,2013-06-17 21:16:00,
2013-06-17 17:21:00,64.2,59.0,29.83,WSW,247,0.0,9.0,85,0.06,,,0.37,Rainwise IP-100,2013-06-17 21:21:00,
2013-06-17 17:26:00,64.4,59.0,29.83,SW,225,3.0,5.0,84,0.00,,,0.37,Rainwise IP-100,2013-06-17 21:26:00,
2013-06-17 17:31:00,64.4,59.0,29.84,West,270,2.0,7.0,83,0.00,,,0.37,Rainwise IP-100,2013-06-17 21:31:00,
2013-06-17 17:36:00,64.5,59.0,29.83,WNW,292,3.0,0.0,82,0.00,,,0.37,Rainwise IP-100,2013-06-17 21:36:00,
2013-06-17 17:41:00,64.8,58.0,29.83,SW,225,6.0,6.0,81,0.00,,,0.37,Rainwise IP-100,2013-06-17 21:41:00,
2013-06-17 17:46:00,65.1,58.0,29.83,West,270,4.0,0.0,79,0.00,,,0.37,Rainwise IP-100,2013-06-17 21:46:00,
2013-06-17 17:51:00,65.3,58.0,29.83,SW,225,3.0,9.0,79,0.00,,,0.37,Rainwise IP-100,2013-06-17 21:51:00,
2013-06-17 17:56:00,65.5,58.0,29.83,SSE,157,4.0,6.0,78,0.00,,,0.37,Rainwise IP-100,2013-06-17 21:56:00,
2013-06-17 18:01:00,64.9,59.0,29.82,SE,135,4.0,5.0,81,0.00,,,0.37,Rainwise IP-100,2013-06-17 22:01:00,
2013-06-17 18:06:00,64.1,59.0,29.82,SSW,202,3.0,4.0,84,0.00,,,0.37,Rainwise IP-100,2013-06-17 22:06:00,
2013-06-17 18:11:00,64.1,59.0,29.82,SSE,157,3.0,3.0,85,0.00,,,0.37,Rainwise IP-100,2013-06-17 22:11:00,
2013-06-17 18:16:00,64.1,60.0,29.82,SE,135,3.0,4.0,86,0.00,,,0.37,Rainwise IP-100,2013-06-17 22:16:00,
2013-06-17 18:21:00,63.7,59.0,29.83,South,180,3.0,5.0,87,0.00,,,0.37,Rainwise IP-100,2013-06-17 22:21:00,
2013-06-17 18:26:00,63.9,60.0,29.82,SSE,157,3.0,4.0,88,0.00,,,0.37,Rainwise IP-100,2013-06-17 22:26:00,
2013-06-17 18:31:00,64.5,60.0,29.82,SSW,202,4.0,7.0,87,0.00,,,0.37,Rainwise IP-100,2013-06-17 22:31:00,
2013-06-17 18:36:00,64.7,60.0,29.82,South,180,4.0,6.0,87,0.00,,,0.37,Rainwise IP-100,2013-06-17 22:36:00,
2013-06-17 18:41:00,64.6,60.0,29.82,SSE,157,6.0,7.0,87,0.00,,,0.37,Rainwise IP-100,2013-06-17 22:41:00,
2013-06-17 18:46:00,64.4,61.0,29.82,SSE,157,3.0,8.0,88,0.00,,,0.37,Rainwise IP-100,2013-06-17 22:46:00,
2013-06-17 18:51:00,64.3,60.0,29.82,South,180,3.0,6.0,88,0.00,,,0.37,Rainwise IP-100,2013-06-17 22:51:00,
2013-06-17 18:56:00,64.5,61.0,29.82,SW,225,2.0,4.0,88,0.00,,,0.37,Rainwise IP-100,2013-06-17 22:56:00,
2013-06-17 19:01:00,64.8,60.0,29.83,SSE,157,3.0,4.0,87,0.00,,,0.37,Rainwise IP-100,2013-06-17 23:01:00,
2013-06-17 19:06:00,64.8,60.0,29.82,SSE,157,4.0,4.0,86,0.00,,,0.37,Rainwise IP-100,2013-06-17 23:06:00,
2013-06-17 19:11:00,64.7,60.0,29.82,SSW,202,3.0,6.0,86,0.00,,,0.37,Rainwise IP-100,2013-06-17 23:11:00,
2013-06-17 19:16:00,64.4,60.0,29.82,SSE,157,3.0,8.0,86,0.00,,,0.37,Rainwise IP-100,2013-06-17 23:16:00,
2013-06-17 19:21:00,63.8,59.0,29.82,SE,135,4.0,0.0,87,0.00,,,0.37,Rainwise IP-100,2013-06-17 23:21:00,
2013-06-17 19:26:00,63.3,59.0,29.82,SE,135,6.0,6.0,88,0.00,,,0.37,Rainwise IP-100,2013-06-17 23:26:00,
2013-06-17 19:31:00,63.3,59.0,29.82,SE,135,3.0,7.0,88,0.00,,,0.37,Rainwise IP-100,2013-06-17 23:31:00,
2013-06-17 19:36:00,63.4,60.0,29.82,SSE,157,5.0,7.0,88,0.00,,,0.37,Rainwise IP-100,2013-06-17 23:36:00,
2013-06-17 19:41:00,63.5,60.0,29.82,South,180,1.0,7.0,88,0.00,,,0.37,Rainwise IP-100,2013-06-17 23:41:00,
2013-06-17 19:46:00,63.6,60.0,29.83,SSE,157,2.0,5.0,88,0.00,,,0.37,Rainwise IP-100,2013-06-17 23:46:00,
2013-06-17 19:51:00,63.7,60.0,29.82,SE,135,1.0,3.0,88,0.00,,,0.37,Rainwise IP-100,2013-06-17 23:51:00,
2013-06-17 19:56:00,63.7,60.0,29.82,ESE,112,1.0,2.0,88,0.00,,,0.37,Rainwise IP-100,2013-06-17 23:56:00,
2013-06-17 20:01:00,63.6,60.0,29.83,ESE,112,2.0,2.0,88,0.00,,,0.37,Rainwise IP-100,2013-06-18 00:01:00,
2013-06-17 20:06:00,63.6,60.0,29.83,East,90,0.0,1.0,88,0.00,,,0.37,Rainwise IP-100,2013-06-18 00:06:00,
2013-06-17 20:11:00,63.7,59.0,29.83,NE,45,0.0,3.0,87,0.00,,,0.37,Rainwise IP-100,2013-06-18 00:11:00,
2013-06-17 20:16:00,63.7,59.0,29.83,NW,315,0.0,2.0,87,0.00,,,0.37,Rainwise IP-100,2013-06-18 00:16:00,
2013-06-17 20:21:00,63.7,59.0,29.83,NW,315,2.0,4.0,86,0.00,,,0.37,Rainwise IP-100,2013-06-18 00:21:00,
2013-06-17 20:26:00,63.8,59.0,29.83,NNW,337,0.0,6.0,86,0.00,,,0.37,Rainwise IP-100,2013-06-18 00:26:00,
2013-06-17 20:31:00,64.3,59.0,29.83,West,270,6.0,7.0,85,0.00,,,0.37,Rainwise IP-100,2013-06-18 00:31:00,
2013-06-17 20:36:00,64.9,59.0,29.84,WNW,292,3.0,7.0,83,0.00,,,0.37,Rainwise IP-100,2013-06-18 00:36:00,
2013-06-17 20:41:00,65.1,59.0,29.84,SSW,202,0.0,5.0,81,0.00,,,0.37,Rainwise IP-100,2013-06-18 00:41:00,
2013-06-17 20:46:00,64.8,58.0,29.84,WSW,247,0.0,3.0,81,0.00,,,0.37,Rainwise IP-100,2013-06-18 00:46:00,
2013-06-17 20:51:00,64.6,59.0,29.84,SW,225,1.0,1.0,82,0.00,,,0.37,Rainwise IP-100,2013-06-18 00:51:00,
2013-06-17 20:56:00,64.2,58.0,29.85,SSE,157,3.0,3.0,82,0.00,,,0.37,Rainwise IP-100,2013-06-18 00:56:00,
2013-06-17 21:01:00,63.4,58.0,29.85,SSE,157,2.0,3.0,83,0.00,,,0.37,Rainwise IP-100,2013-06-18 01:01:00,
2013-06-17 21:06:00,62.8,57.0,29.85,SE,135,0.0,4.0,84,0.00,,,0.37,Rainwise IP-100,2013-06-18 01:06:00,
2013-06-17 21:11:00,63.4,58.0,29.85,WNW,292,8.0,0.0,83,0.00,,,0.37,Rainwise IP-100,2013-06-18 01:11:00,
2013-06-17 21:16:00,65.0,59.0,29.85,WNW,292,0.0,3.0,80,0.00,,,0.37,Rainwise IP-100,2013-06-18 01:16:00,
2013-06-17 21:21:00,66.2,59.0,29.84,WNW,292,0.0,4.0,78,0.00,,,0.37,Rainwise IP-100,2013-06-18 01:21:00,
2013-06-17 21:26:00,66.5,59.0,29.84,WNW,292,0.0,4.0,78,0.00,,,0.37,Rainwise IP-100,2013-06-18 01:26:00,
2013-06-17 21:31:00,66.7,60.0,29.85,West,270,0.0,5.0,79,0.00,,,0.37,Rainwise IP-100,2013-06-18 01:31:00,
2013-06-17 21:36:00,66.7,60.0,29.84,WNW,292,8.0,0.0,79,0.00,,,0.37,Rainwise IP-100,2013-06-18 01:36:00,
2013-06-17 21:41:00,66.6,60.0,29.84,WNW,292,0.0,7.0,79,0.00,,,0.37,Rainwise IP-100,2013-06-18 01:41:00,
2013-06-17 21:46:00,66.3,59.0,29.85,WNW,292,7.0,7.0,79,0.00,,,0.37,Rainwise IP-100,2013-06-18 01:46:00,
2013-06-17 21:51:00,66.1,59.0,29.85,West,270,0.0,7.0,80,0.00,,,0.37,Rainwise IP-100,2013-06-18 01:51:00,
2013-06-17 21:56:00,66.0,60.0,29.85,West,270,0.0,4.0,81,0.06,,,0.38,Rainwise IP-100,2013-06-18 01:56:00,
2013-06-17 22:01:00,65.9,60.0,29.85,West,270,0.0,3.0,81,0.06,,,0.38,Rainwise IP-100,2013-06-18 02:01:00,
2013-06-17 22:06:00,65.8,60.0,29.85,West,270,7.0,7.0,82,0.00,,,0.38,Rainwise IP-100,2013-06-18 02:06:00,
2013-06-17 22:11:00,65.7,60.0,29.85,West,270,0.0,3.0,82,0.00,,,0.38,Rainwise IP-100,2013-06-18 02:11:00,
2013-06-17 22:16:00,65.4,60.0,29.85,West,270,7.0,7.0,83,0.00,,,0.38,Rainwise IP-100,2013-06-18 02:16:00,
2013-06-17 22:21:00,65.3,60.0,29.85,WNW,292,8.0,8.0,84,0.00,,,0.38,Rainwise IP-100,2013-06-18 02:21:00,
2013-06-17 22:26:00,65.2,60.0,29.85,NW,315,9.0,9.0,84,0.00,,,0.38,Rainwise IP-100,2013-06-18 02:26:00,
2013-06-17 22:31:00,65.2,60.0,29.85,West,270,0.0,4.0,84,0.00,,,0.38,Rainwise IP-100,2013-06-18 02:31:00,
2013-06-17 22:36:00,65.1,60.0,29.85,West,270,8.0,8.0,85,0.00,,,0.38,Rainwise IP-100,2013-06-18 02:36:00,
2013-06-17 22:41:00,65.1,60.0,29.85,West,270,0.0,6.0,85,0.00,,,0.38,Rainwise IP-100,2013-06-18 02:41:00,
2013-06-17 22:46:00,65.1,60.0,29.85,West,270,0.0,7.0,85,0.00,,,0.38,Rainwise IP-100,2013-06-18 02:46:00,
2013-06-17 22:51:00,65.0,60.0,29.85,WSW,247,0.0,5.0,85,0.00,,,0.38,Rainwise IP-100,2013-06-18 02:51:00,
2013-06-17 22:56:00,64.8,60.0,29.85,WNW,292,0.0,5.0,85,0.00,,,0.38,Rainwise IP-100,2013-06-18 02:56:00,
2013-06-17 23:01:00,64.6,60.0,29.85,West,270,8.0,8.0,85,0.00,,,0.38,Rainwise IP-100,2013-06-18 03:01:00,
2013-06-17 23:06:00,64.4,60.0,29.85,West,270,0.0,6.0,85,0.00,,,0.38,Rainwise IP-100,2013-06-18 03:06:00,
2013-06-17 23:11:00,64.3,60.0,29.85,West,270,0.0,8.0,86,0.00,,,0.38,Rainwise IP-100,2013-06-18 03:11:00,
2013-06-17 23:16:00,64.1,60.0,29.85,West,270,0.0,6.0,86,0.00,,,0.38,Rainwise IP-100,2013-06-18 03:16:00,
2013-06-17 23:21:00,63.9,60.0,29.85,West,270,0.0,6.0,86,0.00,,,0.38,Rainwise IP-100,2013-06-18 03:21:00,
2013-06-17 23:26:00,63.7,59.0,29.85,West,270,9.0,9.0,86,0.00,,,0.38,Rainwise IP-100,2013-06-18 03:26:00,
2013-06-17 23:31:00,63.5,59.0,29.85,West,270,0.0,6.0,87,0.00,,,0.38,Rainwise IP-100,2013-06-18 03:31:00,
2013-06-17 23:36:00,63.3,59.0,29.85,West,270,0.0,6.0,87,0.00,,,0.38,Rainwise IP-100,2013-06-18 03:36:00,
2013-06-17 23:41:00,63.2,59.0,29.85,West,270,9.0,9.0,88,0.00,,,0.38,Rainwise IP-100,2013-06-18 03:41:00,
2013-06-17 23:46:00,63.0,59.0,29.85,WNW,292,9.0,9.0,88,0.00,,,0.38,Rainwise IP-100,2013-06-18 03:46:00,
2013-06-17 23:51:00,62.8,59.0,29.85,West,270,0.0,7.0,88,0.00,,,0.38,Rainwise IP-100,2013-06-18 03:51:00,
2013-06-17 23:56:00,62.7,59.0,29.85,West,270,0.0,7.0,89,0.00,,,0.38,Rainwise IP-100,2013-06-18 03:56:00,